{"data":{"norad_id":60211,"epoch":"2026-05-24T10:08:09.579840Z","epoch_age_seconds":120873,"freshness":"FRESH","line1":"1 60211U 24126A   26144.42233310  .00000301  00000+0  39072-4 0  9998","line2":"2 60211  97.8222 152.3155 0001676  96.6966 263.4441 14.87573038102357","mean_motion":14.87573038,"eccentricity":0.0001676,"inclination_deg":97.8222,"raan_deg":152.3155,"arg_perigee_deg":96.6966,"mean_anomaly_deg":263.4441,"bstar":3.9072e-5,"rev_number":10235,"period_min":96.801969598484,"perigee_km":604.35074223741,"apogee_km":606.69166446717,"semimajor_km":6983.6582033523,"source":"CELESTRAK","updated_at":"2026-05-25T13:38:01.928173Z"}}